IBE352 KLAX-LEBB

Flight info

Callsign IBE352
Flight time N/A
Altitude 33000
Route ORCKA5 BEALE DCT BAWER DCT LARVE DCT EKR DCT CYS DCT FOD DCT PMM/N0470F350 J94 FNT DCT DERLO Q951 SIKBO DCT MIVOK DCT QUBIS DCT YQX/N0478F370 DCT JOOPY/M082F370 DCT 49N050W 51N040W 52N030W 52N020W DCT DINIM DCT ELSOX DCT TULTA/N0482F370 DCT DELOG N75 DOSUL DOSUL4Q
Aircraft A343/H-VGDW/C

Departure

Time 2026-05-04 03:59
Airport Los Angeles International Airport (KLAX)

Arrival

Time N/A
Airport Bilbao Airport (LEBB)
Time Latitude Longitude Altitude Speed Heading
2026-05-04 03:32 33.93943 -118.41068 125 ft 0 kts 83°
2026-05-04 03:41 33.93943 -118.41069 126 ft 0 kts 83°
2026-05-04 03:42 33.93941 -118.41089 128 ft 3 kts 83°
2026-05-04 03:42 33.93938 -118.41111 125 ft 3 kts 83°
2026-05-04 03:42 33.93936 -118.41133 125 ft 3 kts 107°
2026-05-04 03:42 33.93945 -118.41154 124 ft 3 kts 151°
2026-05-04 03:43 33.93951 -118.41159 124 ft 0 kts 167°
2026-05-04 03:45 33.93947 -118.41158 124 ft 3 kts 171°
2026-05-04 03:45 33.93903 -118.41164 127 ft 8 kts 187°
2026-05-04 03:46 33.93849 -118.41162 126 ft 8 kts 172°
2026-05-04 03:46 33.93790 -118.41141 127 ft 10 kts 146°
2026-05-04 03:46 33.93771 -118.41063 128 ft 11 kts 87°
2026-05-04 03:46 33.93781 -118.40962 129 ft 13 kts 82°
2026-05-04 03:47 33.93794 -118.40856 125 ft 12 kts 83°
2026-05-04 03:47 33.93803 -118.40756 127 ft 12 kts 84°
2026-05-04 03:47 33.93813 -118.40650 125 ft 15 kts 83°
2026-05-04 03:47 33.93827 -118.40523 126 ft 15 kts 84°
2026-05-04 03:48 33.93837 -118.40411 126 ft 11 kts 82°
2026-05-04 03:48 33.93845 -118.40337 129 ft 8 kts 82°
2026-05-04 03:48 33.93852 -118.40275 125 ft 7 kts 83°
2026-05-04 03:48 33.93859 -118.40200 128 ft 12 kts 83°
2026-05-04 03:49 33.93869 -118.40104 125 ft 11 kts 82°
2026-05-04 03:49 33.93879 -118.40013 129 ft 12 kts 83°
2026-05-04 03:49 33.93891 -118.39891 127 ft 17 kts 83°
2026-05-04 03:49 33.93907 -118.39732 127 ft 21 kts 83°
2026-05-04 03:50 33.93924 -118.39563 127 ft 20 kts 83°
2026-05-04 03:50 33.93941 -118.39401 124 ft 19 kts 83°
2026-05-04 03:50 33.93956 -118.39247 126 ft 18 kts 83°
2026-05-04 03:50 33.93971 -118.39101 127 ft 17 kts 83°
2026-05-04 03:51 33.93985 -118.38966 125 ft 16 kts 83°
2026-05-04 03:51 33.93998 -118.38836 124 ft 15 kts 83°
2026-05-04 03:51 33.94011 -118.38713 125 ft 14 kts 83°
2026-05-04 03:51 33.94022 -118.38597 128 ft 14 kts 83°
2026-05-04 03:52 33.94033 -118.38488 126 ft 13 kts 83°
2026-05-04 03:52 33.94044 -118.38385 127 ft 12 kts 83°
2026-05-04 03:52 33.94054 -118.38289 124 ft 11 kts 83°
2026-05-04 03:52 33.94063 -118.38199 129 ft 10 kts 83°
2026-05-04 03:53 33.94072 -118.38117 127 ft 6 kts 82°
2026-05-04 03:53 33.94073 -118.38112 129 ft 0 kts 82°
2026-05-04 03:55 33.94076 -118.38084 128 ft 5 kts 82°
2026-05-04 03:55 33.94072 -118.38038 129 ft 8 kts 108°
2026-05-04 03:55 33.94015 -118.38009 127 ft 9 kts 189°
2026-05-04 03:55 33.93983 -118.38059 124 ft 8 kts 254°
2026-05-04 03:56 33.93979 -118.38087 128 ft 0 kts 262°
2026-05-04 03:56 33.93979 -118.38086 128 ft 0 kts 262°
2026-05-04 03:58 33.93979 -118.38087 128 ft 1 kts 262°
2026-05-04 03:58 33.93967 -118.38195 124 ft 36 kts 262°
2026-05-04 03:59 33.93912 -118.38730 128 ft 92 kts 263°
2026-05-04 03:59 33.93812 -118.39700 126 ft 140 kts 263°
2026-05-04 03:59 33.93672 -118.41025 213 ft 173 kts 262°
2026-05-04 03:59 33.93492 -118.42452 817 ft 173 kts 261°
2026-05-04 04:00 33.93321 -118.43897 1461 ft 176 kts 263°
2026-05-04 04:00 33.93174 -118.45426 1909 ft 189 kts 265°
2026-05-04 04:00 33.92917 -118.47005 2278 ft 199 kts 252°
2026-05-04 04:00 33.92349 -118.48637 2431 ft 223 kts 246°
2026-05-04 04:01 33.91671 -118.50285 2647 ft 215 kts 243°
2026-05-04 04:01 33.90984 -118.51935 2987 ft 225 kts 248°
2026-05-04 04:01 33.90383 -118.53692 3568 ft 229 kts 249°
2026-05-04 04:01 33.89793 -118.55449 4167 ft 232 kts 248°
2026-05-04 04:02 33.89174 -118.57271 4710 ft 237 kts 248°
2026-05-04 04:02 33.88541 -118.59107 5313 ft 239 kts 248°
2026-05-04 04:02 33.87893 -118.60931 6003 ft 237 kts 245°
2026-05-04 04:02 33.86966 -118.62584 6537 ft 242 kts 227°
2026-05-04 04:03 33.85569 -118.63737 7044 ft 249 kts 202°
2026-05-04 04:03 33.83847 -118.63972 7577 ft 256 kts 172°
2026-05-04 04:03 33.82224 -118.63083 8126 ft 263 kts 140°
2026-05-04 04:03 33.81202 -118.61246 8627 ft 272 kts 108°
2026-05-04 04:04 33.81136 -118.58967 9106 ft 280 kts 74°
2026-05-04 04:04 33.82080 -118.56965 9558 ft 283 kts 45°
2026-05-04 04:04 33.83508 -118.55322 10033 ft 286 kts 41°
2026-05-04 04:04 33.84999 -118.53655 10290 ft 299 kts 43°
2026-05-04 04:05 33.86527 -118.51863 10517 ft 313 kts 44°
2026-05-04 04:05 33.88085 -118.49969 10721 ft 326 kts 45°
2026-05-04 04:05 33.89692 -118.47975 10951 ft 338 kts 46°
2026-05-04 04:05 33.91350 -118.45896 11187 ft 350 kts 46°
2026-05-04 04:06 33.93011 -118.43685 11371 ft 362 kts 52°
2026-05-04 04:06 33.94514 -118.41190 11597 ft 374 kts 56°
2026-05-04 04:06 33.96003 -118.38559 11809 ft 386 kts 56°
2026-05-04 04:06 33.97530 -118.35847 12008 ft 397 kts 56°
2026-05-04 04:07 33.99102 -118.33063 12322 ft 405 kts 56°
2026-05-04 04:07 34.00695 -118.30244 12737 ft 410 kts 56°
2026-05-04 04:07 34.02314 -118.27393 13174 ft 414 kts 56°
2026-05-04 04:07 34.03921 -118.24556 13627 ft 417 kts 57°
2026-05-04 04:08 34.05564 -118.21654 14051 ft 421 kts 56°
2026-05-04 04:08 34.07222 -118.18723 14411 ft 426 kts 56°
2026-05-04 04:08 34.08902 -118.15753 14766 ft 431 kts 56°
2026-05-04 04:08 34.10600 -118.12749 15125 ft 436 kts 56°
2026-05-04 04:09 34.12314 -118.09714 15463 ft 440 kts 56°
2026-05-04 04:09 34.14050 -118.06642 15811 ft 445 kts 56°
2026-05-04 04:09 34.15801 -118.03535 16142 ft 450 kts 55°
2026-05-04 04:09 34.17568 -118.00395 16498 ft 455 kts 55°
2026-05-04 04:10 34.19352 -117.97221 16897 ft 459 kts 55°
2026-05-04 04:10 34.21154 -117.94015 17228 ft 464 kts 55°
2026-05-04 04:10 34.22978 -117.90767 17644 ft 468 kts 55°
2026-05-04 04:10 34.24810 -117.87498 18025 ft 473 kts 54°
2026-05-04 04:11 34.26641 -117.84231 18324 ft 478 kts 54°
2026-05-04 04:11 34.28512 -117.80892 18652 ft 481 kts 54°
2026-05-04 04:11 34.30392 -117.77533 19045 ft 483 kts 55°
2026-05-04 04:11 34.32278 -117.74160 19417 ft 485 kts 54°
2026-05-04 04:12 34.34154 -117.70753 19753 ft 488 kts 57°
2026-05-04 04:12 34.35711 -117.67088 20075 ft 492 kts 67°
2026-05-04 04:12 34.37002 -117.63244 20453 ft 494 kts 69°
2026-05-04 04:12 34.38261 -117.59363 20722 ft 498 kts 69°
2026-05-04 04:13 34.39528 -117.55449 21024 ft 500 kts 69°
2026-05-04 04:13 34.40804 -117.51518 21375 ft 502 kts 69°
2026-05-04 04:13 34.42066 -117.47631 21658 ft 505 kts 69°
2026-05-04 04:13 34.43354 -117.43665 21989 ft 506 kts 69°
2026-05-04 04:14 34.44644 -117.39688 22350 ft 508 kts 69°
2026-05-04 04:14 34.45939 -117.35695 22733 ft 510 kts 69°
2026-05-04 04:14 34.47237 -117.31687 23036 ft 513 kts 69°
2026-05-04 04:14 34.48541 -117.27656 23323 ft 515 kts 69°
2026-05-04 04:15 34.49851 -117.23600 23612 ft 518 kts 69°
2026-05-04 04:15 34.51166 -117.19525 23841 ft 521 kts 69°
2026-05-04 04:15 34.52488 -117.15422 23973 ft 523 kts 69°
2026-05-04 04:15 34.53915 -117.11428 24257 ft 524 kts 61°
2026-05-04 04:16 34.55885 -117.07716 24453 ft 525 kts 50°
2026-05-04 04:16 34.58188 -117.04267 24680 ft 527 kts 47°
2026-05-04 04:16 34.60548 -117.00852 24919 ft 529 kts 47°
2026-05-04 04:16 34.62911 -116.97431 25220 ft 530 kts 47°
2026-05-04 04:17 34.65283 -116.93986 25395 ft 534 kts 47°
2026-05-04 04:17 34.67668 -116.90513 25623 ft 536 kts 47°
2026-05-04 04:17 34.70059 -116.87023 25837 ft 538 kts 47°
2026-05-04 04:17 34.72458 -116.83515 26018 ft 542 kts 47°
2026-05-04 04:18 34.74873 -116.79979 26184 ft 545 kts 48°
2026-05-04 04:18 34.77292 -116.76431 26439 ft 546 kts 47°
2026-05-04 04:18 34.79722 -116.72864 26666 ft 548 kts 48°
2026-05-04 04:18 34.82125 -116.69337 26840 ft 550 kts 47°
2026-05-04 04:19 34.84564 -116.65747 27038 ft 551 kts 48°
2026-05-04 04:19 34.87035 -116.62174 27231 ft 552 kts 45°
2026-05-04 04:19 34.89629 -116.58715 27455 ft 553 kts 44°
2026-05-04 04:19 34.92248 -116.55275 27669 ft 555 kts 44°
2026-05-04 04:20 34.94864 -116.51819 27931 ft 555 kts 44°
2026-05-04 04:20 34.97474 -116.48349 28145 ft 556 kts 44°
2026-05-04 04:20 35.00084 -116.44865 28308 ft 558 kts 44°
2026-05-04 04:20 35.02705 -116.41358 28496 ft 559 kts 44°
2026-05-04 04:21 35.05288 -116.37892 28731 ft 560 kts 44°
2026-05-04 04:21 35.07902 -116.34380 29018 ft 559 kts 44°
2026-05-04 04:21 35.10513 -116.30868 29274 ft 559 kts 44°
2026-05-04 04:21 35.13124 -116.27354 29510 ft 558 kts 44°
2026-05-04 04:22 35.15731 -116.23839 29803 ft 557 kts 44°
2026-05-04 04:22 35.18323 -116.20340 30100 ft 555 kts 44°
2026-05-04 04:22 35.20916 -116.16836 30225 ft 557 kts 44°
2026-05-04 04:22 35.23520 -116.13317 30367 ft 559 kts 44°
2026-05-04 04:23 35.26116 -116.09801 30701 ft 555 kts 44°
2026-05-04 04:23 35.28666 -116.06345 30880 ft 555 kts 43°
2026-05-04 04:23 35.33861 -115.99297 31093 ft 559 kts 43°
2026-05-04 04:24 35.36464 -115.95758 31239 ft 560 kts 43°
2026-05-04 04:24 35.39068 -115.92213 31430 ft 559 kts 43°
2026-05-04 04:24 35.41659 -115.88683 31688 ft 557 kts 43°
2026-05-04 04:24 35.44253 -115.85145 31805 ft 559 kts 43°
2026-05-04 04:25 35.46855 -115.81595 31910 ft 560 kts 43°
2026-05-04 04:25 35.49459 -115.78037 32023 ft 561 kts 43°
2026-05-04 04:25 35.52067 -115.74470 32145 ft 561 kts 43°
2026-05-04 04:25 35.54637 -115.70950 32281 ft 562 kts 43°
2026-05-04 04:26 35.57243 -115.67377 32413 ft 562 kts 43°
2026-05-04 04:26 35.59853 -115.63796 32544 ft 563 kts 43°
2026-05-04 04:26 35.62464 -115.60209 32719 ft 562 kts 43°
2026-05-04 04:26 35.65071 -115.56623 32888 ft 562 kts 42°
2026-05-04 04:27 35.70285 -115.49445 33080 ft 564 kts 42°
2026-05-04 04:27 35.72898 -115.45844 33211 ft 564 kts 42°
2026-05-04 04:27 35.75509 -115.42235 33280 ft 565 kts 42°
2026-05-04 04:28 35.80705 -115.35042 33518 ft 565 kts 42°
2026-05-04 04:28 35.83316 -115.31421 33664 ft 565 kts 42°
2026-05-04 04:28 35.85916 -115.27812 33949 ft 561 kts 42°
2026-05-04 04:29 35.88504 -115.24216 34059 ft 561 kts 42°
2026-05-04 04:29 35.91095 -115.20615 34197 ft 560 kts 43°
2026-05-04 04:29 35.93675 -115.17023 34361 ft 559 kts 43°
2026-05-04 04:29 35.96255 -115.13429 34415 ft 560 kts 43°
2026-05-04 04:30 36.01389 -115.06266 34535 ft 561 kts 43°
2026-05-04 04:30 36.06564 -114.99030 34579 ft 563 kts 42°
2026-05-04 04:31 36.11771 -114.91734 34544 ft 567 kts 42°
2026-05-04 04:31 36.17001 -114.84389 34585 ft 570 kts 42°
2026-05-04 04:32 36.22221 -114.77048 34682 ft 573 kts 42°
2026-05-04 04:32 36.27483 -114.69591 34667 ft 580 kts 47°
2026-05-04 04:33 36.32352 -114.61556 34650 ft 585 kts 49°
2026-05-04 04:33 36.37139 -114.53348 34646 ft 589 kts 50°
2026-05-04 04:34 36.41907 -114.45069 34648 ft 589 kts 50°
2026-05-04 04:34 36.46637 -114.36850 34664 ft 588 kts 50°
2026-05-04 04:35 36.51391 -114.28594 34659 ft 587 kts 50°
2026-05-04 04:35 36.56135 -114.20345 34672 ft 586 kts 50°
2026-05-04 04:36 36.60864 -114.12102 34697 ft 584 kts 50°
2026-05-04 04:36 36.65538 -114.03933 34688 ft 582 kts 50°
2026-05-04 04:37 36.74900 -113.87511 34747 ft 581 kts 50°
2026-05-04 04:38 36.79573 -113.79289 34760 ft 581 kts 51°
2026-05-04 04:38 36.84175 -113.71162 34809 ft 574 kts 51°
2026-05-04 04:39 36.88793 -113.62997 34844 ft 577 kts 51°
2026-05-04 04:39 36.93402 -113.54823 34890 ft 573 kts 51°
2026-05-04 04:40 36.97970 -113.46701 34877 ft 569 kts 51°
2026-05-04 04:40 37.02478 -113.38668 34845 ft 568 kts 51°
2026-05-04 04:41 37.07009 -113.30577 34891 ft 567 kts 51°
2026-05-04 04:41 37.11534 -113.22477 34919 ft 567 kts 51°
2026-05-04 04:42 37.16052 -113.14369 34924 ft 567 kts 51°
2026-05-04 04:42 37.20535 -113.06305 34919 ft 567 kts 51°
2026-05-04 04:43 37.25047 -112.98170 34893 ft 568 kts 51°
2026-05-04 04:43 37.29558 -112.90019 34898 ft 569 kts 51°
2026-05-04 04:44 37.34069 -112.81845 34892 ft 570 kts 51°
2026-05-04 04:44 37.38546 -112.73705 34880 ft 569 kts 51°
2026-05-04 04:45 37.43035 -112.65527 34904 ft 567 kts 51°
2026-05-04 04:47 37.58653 -112.36929 35049 ft 566 kts 51°
2026-05-04 04:47 37.63103 -112.28736 35121 ft 566 kts 51°
2026-05-04 04:48 37.67750 -112.20741 35164 ft 564 kts 46°
2026-05-04 04:49 37.80047 -112.01486 35116 ft 564 kts 46°
2026-05-04 04:49 37.84900 -111.93688 35048 ft 564 kts 46°
2026-05-04 04:50 37.89743 -111.85857 34967 ft 565 kts 47°
2026-05-04 04:50 37.94545 -111.78076 34908 ft 565 kts 47°
2026-05-04 04:51 37.99376 -111.70239 34915 ft 564 kts 47°
2026-05-04 04:51 38.04199 -111.62397 34916 ft 564 kts 47°
2026-05-04 04:52 38.09016 -111.54547 34919 ft 564 kts 47°
2026-05-04 04:52 38.13831 -111.46679 34911 ft 564 kts 47°
2026-05-04 04:53 38.16144 -111.42895 34915 ft 564 kts 47°
2026-05-04 04:53 38.20952 -111.35011 34895 ft 564 kts 47°
2026-05-04 04:54 38.25725 -111.27165 34883 ft 564 kts 47°
2026-05-04 04:54 38.30525 -111.19254 34901 ft 565 kts 48°
2026-05-04 04:55 38.35310 -111.11348 34898 ft 563 kts 48°
2026-05-04 04:55 38.40089 -111.03436 34911 ft 563 kts 48°
2026-05-04 04:56 38.44835 -110.95562 34940 ft 564 kts 48°
2026-05-04 04:56 38.49608 -110.87622 34962 ft 564 kts 48°
2026-05-04 04:57 38.54377 -110.79667 34954 ft 564 kts 48°
2026-05-04 04:57 38.59128 -110.71723 34950 ft 562 kts 48°
2026-05-04 04:58 38.63816 -110.63863 34918 ft 556 kts 49°
2026-05-04 04:58 38.68479 -110.56025 34824 ft 552 kts 49°
2026-05-04 04:59 38.73129 -110.48197 34818 ft 552 kts 49°
2026-05-04 04:59 38.77776 -110.40352 34807 ft 553 kts 49°
2026-05-04 05:00 38.82389 -110.32545 34789 ft 553 kts 49°
2026-05-04 05:01 38.89348 -110.20733 34786 ft 553 kts 49°
2026-05-04 05:01 38.93981 -110.12844 34799 ft 553 kts 50°
2026-05-04 05:02 38.98601 -110.04957 34800 ft 551 kts 50°
2026-05-04 05:02 39.03173 -109.97133 34805 ft 551 kts 50°
2026-05-04 05:03 39.07695 -109.89172 34806 ft 552 kts 53°
2026-05-04 05:04 39.16121 -109.72626 34786 ft 551 kts 54°
2026-05-04 05:04 39.20306 -109.64453 34789 ft 550 kts 53°
2026-05-04 05:06 39.34932 -109.36010 34783 ft 538 kts 54°
2026-05-04 05:06 39.36997 -109.31977 34787 ft 538 kts 54°
2026-05-04 05:07 39.41089 -109.23965 34787 ft 538 kts 54°
2026-05-04 05:07 39.45206 -109.15882 34787 ft 538 kts 54°
2026-05-04 05:09 39.63490 -108.79728 34807 ft 528 kts 54°
2026-05-04 05:10 39.67502 -108.71740 34808 ft 527 kts 54°
2026-05-04 05:10 39.71464 -108.63832 34825 ft 526 kts 54°
2026-05-04 05:11 39.75445 -108.55867 34836 ft 526 kts 54°
2026-05-04 05:11 39.79420 -108.47894 34834 ft 526 kts 54°
2026-05-04 05:12 39.83393 -108.39905 34849 ft 526 kts 54°
2026-05-04 05:12 39.87354 -108.31916 34848 ft 525 kts 54°
2026-05-04 05:13 39.91274 -108.23992 34882 ft 522 kts 54°
2026-05-04 05:13 39.95189 -108.16057 34933 ft 520 kts 55°
2026-05-04 05:14 39.99098 -108.08117 34994 ft 520 kts 55°
2026-05-04 05:14 40.02998 -108.00175 35034 ft 520 kts 55°
2026-05-04 05:15 40.06785 -107.92196 35041 ft 522 kts 60°
2026-05-04 05:15 40.08470 -107.87999 34879 ft 522 kts 61°
2026-05-04 05:15 40.10118 -107.83771 34881 ft 522 kts 61°
2026-05-04 05:16 40.13355 -107.75273 34882 ft 523 kts 62°
2026-05-04 05:16 40.16573 -107.66757 34893 ft 522 kts 62°
2026-05-04 05:17 40.19770 -107.58299 34926 ft 523 kts 62°
2026-05-04 05:17 40.22989 -107.49775 34941 ft 522 kts 62°
2026-05-04 05:18 40.26194 -107.41270 34954 ft 520 kts 62°
2026-05-04 05:18 40.29386 -107.32774 34987 ft 519 kts 62°
2026-05-04 05:19 40.32540 -107.24354 35009 ft 518 kts 62°
2026-05-04 05:19 40.35708 -107.15873 35025 ft 518 kts 62°
2026-05-04 05:20 40.38871 -107.07380 35019 ft 518 kts 62°
2026-05-04 05:20 40.42023 -106.98889 34997 ft 516 kts 62°
2026-05-04 05:21 40.45132 -106.90491 34965 ft 514 kts 62°
2026-05-04 05:21 40.48250 -106.82045 35035 ft 514 kts 62°
2026-05-04 05:22 40.51364 -106.73585 35030 ft 514 kts 62°
2026-05-04 05:22 40.54470 -106.65123 34996 ft 514 kts 62°
2026-05-04 05:23 40.57565 -106.56670 34964 ft 513 kts 62°
2026-05-04 05:23 40.60624 -106.48287 34915 ft 511 kts 62°
2026-05-04 05:24 40.63694 -106.39848 34884 ft 511 kts 62°
2026-05-04 05:24 40.66757 -106.31405 34869 ft 511 kts 62°
2026-05-04 05:25 40.69822 -106.22934 34867 ft 513 kts 62°
2026-05-04 05:25 40.72867 -106.14492 34870 ft 513 kts 62°
2026-05-04 05:26 40.75927 -106.05982 34853 ft 513 kts 62°
2026-05-04 05:26 40.78979 -105.97468 34862 ft 513 kts 62°
2026-05-04 05:28 40.91115 -105.63371 34841 ft 514 kts 62°
2026-05-04 05:29 40.94134 -105.54823 34832 ft 512 kts 62°
2026-05-04 05:29 40.97136 -105.46296 34820 ft 511 kts 62°
2026-05-04 05:31 41.09078 -105.12135 34837 ft 513 kts 62°
2026-05-04 05:32 41.12040 -105.03596 34846 ft 513 kts 62°
2026-05-04 05:32 41.13528 -104.99297 34970 ft 513 kts 62°
2026-05-04 05:33 41.16502 -104.90683 35010 ft 513 kts 62°
2026-05-04 05:33 41.19474 -104.82052 34998 ft 515 kts 62°
2026-05-04 05:34 41.21855 -104.73052 34998 ft 519 kts 72°
2026-05-04 05:34 41.23618 -104.63798 34965 ft 520 kts 73°
2026-05-04 05:35 41.25288 -104.54439 34924 ft 521 kts 74°
2026-05-04 05:35 41.26951 -104.45073 34879 ft 521 kts 74°
2026-05-04 05:36 41.28622 -104.35708 34847 ft 521 kts 74°
2026-05-04 05:36 41.30281 -104.26403 34847 ft 521 kts 74°
2026-05-04 05:37 41.31946 -104.17025 34854 ft 521 kts 73°
2026-05-04 05:37 41.33604 -104.07639 34856 ft 521 kts 74°
2026-05-04 05:38 41.36065 -103.93608 34898 ft 521 kts 74°
2026-05-04 05:38 41.37703 -103.84205 34923 ft 521 kts 74°
2026-05-04 05:39 41.40141 -103.70123 34904 ft 520 kts 74°
2026-05-04 05:40 41.42290 -103.57625 34887 ft 520 kts 74°
2026-05-04 05:40 41.44153 -103.46711 34875 ft 520 kts 74°
2026-05-04 05:41 41.45745 -103.37332 34853 ft 518 kts 74°
2026-05-04 05:41 41.47060 -103.29549 34843 ft 518 kts 74°
2026-05-04 05:42 41.48636 -103.20179 34835 ft 518 kts 74°
2026-05-04 05:42 41.50458 -103.09285 34840 ft 517 kts 74°
2026-05-04 05:43 41.51760 -103.01449 34828 ft 515 kts 75°
2026-05-04 05:45 41.58114 -102.62721 34828 ft 510 kts 75°
2026-05-04 05:47 41.63800 -102.27311 34845 ft 506 kts 76°
2026-05-04 05:47 41.65259 -102.18110 34843 ft 506 kts 76°
2026-05-04 05:48 41.66699 -102.08969 34843 ft 506 kts 76°
2026-05-04 05:48 41.68143 -101.99757 34842 ft 505 kts 76°
2026-05-04 05:49 41.69576 -101.90565 34842 ft 505 kts 76°
2026-05-04 05:49 41.71001 -101.81374 34840 ft 504 kts 76°
2026-05-04 05:51 41.76606 -101.44696 34835 ft 502 kts 77°
2026-05-04 05:52 41.77979 -101.35589 34834 ft 502 kts 77°
2026-05-04 05:52 41.79354 -101.26408 34835 ft 502 kts 77°
2026-05-04 05:54 41.84759 -100.89815 34835 ft 501 kts 77°
2026-05-04 05:55 41.86093 -100.80642 34835 ft 501 kts 77°
2026-05-04 05:55 41.87421 -100.71466 34838 ft 501 kts 77°
2026-05-04 05:56 41.88742 -100.62280 34843 ft 501 kts 77°
2026-05-04 05:56 41.90048 -100.53153 34849 ft 501 kts 77°
2026-05-04 05:57 41.91353 -100.43967 34842 ft 501 kts 77°
2026-05-04 05:57 41.92652 -100.34776 34840 ft 501 kts 77°
2026-05-04 05:58 41.93942 -100.25583 34818 ft 501 kts 77°
2026-05-04 05:58 41.95217 -100.16447 34824 ft 501 kts 77°
2026-05-04 05:59 41.96494 -100.07246 34816 ft 501 kts 77°
2026-05-04 05:59 41.97764 -99.98036 34810 ft 501 kts 77°
2026-05-04 06:00 41.99026 -99.88819 34814 ft 502 kts 77°
2026-05-04 06:00 42.00274 -99.79656 34813 ft 502 kts 77°
2026-05-04 06:01 42.01523 -99.70422 34807 ft 502 kts 77°
2026-05-04 06:03 42.06439 -99.33508 34803 ft 502 kts 77°
2026-05-04 06:05 42.11831 -98.91889 34799 ft 502 kts 77°
2026-05-04 06:06 42.13011 -98.82612 34796 ft 502 kts 77°
2026-05-04 06:06 42.14182 -98.73337 34799 ft 502 kts 77°
2026-05-04 06:07 42.15339 -98.64124 34807 ft 502 kts 77°
2026-05-04 06:07 42.16495 -98.54846 34804 ft 502 kts 77°
2026-05-04 06:08 42.17644 -98.45572 34809 ft 502 kts 77°
2026-05-04 06:08 42.18785 -98.36293 34809 ft 502 kts 77°
2026-05-04 06:09 42.19918 -98.27009 34812 ft 501 kts 77°
2026-05-04 06:11 42.24358 -97.90008 34805 ft 500 kts 78°
2026-05-04 06:13 42.28678 -97.52956 34799 ft 500 kts 78°
2026-05-04 06:14 42.32356 -97.20537 34794 ft 500 kts 78°
2026-05-04 06:15 42.33392 -97.11247 34786 ft 500 kts 78°
2026-05-04 06:15 42.34421 -97.01958 34784 ft 500 kts 78°
2026-05-04 06:16 42.35435 -96.92726 34790 ft 500 kts 78°
2026-05-04 06:16 42.36449 -96.83428 34796 ft 500 kts 78°
2026-05-04 06:17 42.37455 -96.74127 34786 ft 500 kts 78°
2026-05-04 06:17 42.38453 -96.64825 34785 ft 500 kts 78°
2026-05-04 06:18 42.39437 -96.55584 34778 ft 500 kts 78°
2026-05-04 06:20 42.43320 -96.18398 34777 ft 500 kts 79°
2026-05-04 06:21 42.45689 -95.95097 34774 ft 500 kts 79°
2026-05-04 06:22 42.46623 -95.85770 34777 ft 500 kts 79°
2026-05-04 06:25 42.52930 -95.20651 34786 ft 499 kts 79°
2026-05-04 06:26 42.53803 -95.11315 34787 ft 499 kts 79°
2026-05-04 06:26 42.54668 -95.01975 34780 ft 499 kts 79°
2026-05-04 06:27 42.56792 -94.78681 34788 ft 499 kts 80°
2026-05-04 06:28 42.57631 -94.69331 34795 ft 499 kts 80°
2026-05-04 06:28 42.58457 -94.60045 34793 ft 499 kts 80°
2026-05-04 06:29 42.59282 -94.50684 34787 ft 499 kts 80°
2026-05-04 06:29 42.60098 -94.41323 34787 ft 500 kts 80°
2026-05-04 06:30 42.60906 -94.31956 34784 ft 500 kts 80°
2026-05-04 06:30 42.61249 -94.22509 34787 ft 502 kts 85°
2026-05-04 06:31 42.61423 -94.13096 34785 ft 502 kts 86°
2026-05-04 06:31 42.61562 -94.03612 34785 ft 502 kts 86°
2026-05-04 06:33 42.62085 -93.65737 34768 ft 503 kts 86°
2026-05-04 06:34 42.62198 -93.56249 34775 ft 503 kts 86°
2026-05-04 06:34 42.62304 -93.46819 34764 ft 503 kts 86°
2026-05-04 06:36 42.62648 -93.08844 34764 ft 503 kts 86°
2026-05-04 06:37 42.62715 -92.99411 34764 ft 503 kts 86°
2026-05-04 06:37 42.62774 -92.89912 34759 ft 503 kts 86°
2026-05-04 06:38 42.62825 -92.80415 34758 ft 503 kts 86°
2026-05-04 06:40 42.62951 -92.42465 34767 ft 504 kts 87°
2026-05-04 06:40 42.62963 -92.32958 34764 ft 504 kts 87°
2026-05-04 06:41 42.62967 -92.23511 34773 ft 504 kts 87°
2026-05-04 06:41 42.62963 -92.14001 34765 ft 504 kts 87°
2026-05-04 06:42 42.62951 -92.04484 34764 ft 504 kts 87°
2026-05-04 06:44 42.62826 -91.66479 34775 ft 504 kts 87°
2026-05-04 06:44 42.62775 -91.56957 34760 ft 504 kts 87°
2026-05-04 06:45 42.62716 -91.47437 34767 ft 504 kts 87°
2026-05-04 06:45 42.62650 -91.37975 34767 ft 505 kts 87°
2026-05-04 06:46 42.62575 -91.28448 34768 ft 505 kts 88°
2026-05-04 06:46 42.62493 -91.18924 34776 ft 505 kts 88°
2026-05-04 06:48 42.62084 -90.80854 34775 ft 505 kts 88°
2026-05-04 06:50 42.61549 -90.42722 34766 ft 506 kts 88°
2026-05-04 06:51 42.61395 -90.33163 34768 ft 507 kts 88°
2026-05-04 06:51 42.61232 -90.23651 34764 ft 508 kts 88°
2026-05-04 06:52 42.61062 -90.14054 34759 ft 509 kts 88°
2026-05-04 06:52 42.60884 -90.04455 34755 ft 509 kts 88°
2026-05-04 06:53 42.60696 -89.94853 34761 ft 509 kts 88°
2026-05-04 06:53 42.60501 -89.85245 34762 ft 510 kts 88°
2026-05-04 06:54 42.60300 -89.75697 34765 ft 510 kts 88°
2026-05-04 06:54 42.60089 -89.66083 34766 ft 509 kts 88°
2026-05-04 06:55 42.59870 -89.56472 34767 ft 510 kts 88°
2026-05-04 06:55 42.59642 -89.46857 34766 ft 510 kts 88°
2026-05-04 06:57 42.58654 -89.08474 34764 ft 510 kts 89°
2026-05-04 06:58 42.58389 -88.98924 34758 ft 510 kts 89°
2026-05-04 06:58 42.58113 -88.89308 34759 ft 510 kts 89°
2026-05-04 06:59 42.57829 -88.79693 34761 ft 510 kts 89°
2026-05-04 06:59 42.57538 -88.70083 34760 ft 510 kts 89°
2026-05-04 07:01 42.56293 -88.31682 34760 ft 511 kts 89°
2026-05-04 07:02 42.55960 -88.22063 34749 ft 511 kts 89°
2026-05-04 07:02 42.55622 -88.12508 34750 ft 511 kts 89°
2026-05-04 07:03 42.55274 -88.02887 34749 ft 511 kts 89°
2026-05-04 07:03 42.54917 -87.93251 34748 ft 512 kts 89°
2026-05-04 07:04 42.54553 -87.83618 34748 ft 512 kts 89°
2026-05-04 07:04 42.54182 -87.74047 34746 ft 512 kts 89°
2026-05-04 07:05 42.53801 -87.64414 34749 ft 512 kts 89°
2026-05-04 07:05 42.53411 -87.54776 34743 ft 512 kts 89°
2026-05-04 07:06 42.52812 -87.40323 34744 ft 512 kts 89°
2026-05-04 07:07 42.52405 -87.30753 34754 ft 512 kts 90°
2026-05-04 07:09 42.50685 -86.92201 34769 ft 513 kts 90°
2026-05-04 07:09 42.50238 -86.82628 34759 ft 513 kts 90°
2026-05-04 07:10 42.49779 -86.72991 34762 ft 513 kts 90°
2026-05-04 07:12 42.47867 -86.34493 34768 ft 513 kts 90°
2026-05-04 07:12 42.47367 -86.24845 34768 ft 513 kts 90°
2026-05-04 07:13 42.46885 -86.15198 34774 ft 512 kts 87°
2026-05-04 07:13 42.47713 -86.05829 34769 ft 501 kts 71°
2026-05-04 07:14 42.52638 -85.83218 34772 ft 500 kts 68°
2026-05-04 07:15 42.54652 -85.74185 34779 ft 500 kts 68°
2026-05-04 07:15 42.56626 -85.65202 34779 ft 500 kts 69°
2026-05-04 07:16 42.58600 -85.56153 34780 ft 500 kts 69°
2026-05-04 07:16 42.60567 -85.47097 34778 ft 500 kts 69°
2026-05-04 07:17 42.62529 -85.38029 34778 ft 501 kts 69°
2026-05-04 07:17 42.64485 -85.28953 34783 ft 501 kts 69°
2026-05-04 07:18 42.66423 -85.19923 34783 ft 501 kts 69°
2026-05-04 07:18 42.68375 -85.10832 34781 ft 501 kts 69°
2026-05-04 07:19 42.70333 -85.01742 34788 ft 501 kts 69°
2026-05-04 07:19 42.72285 -84.92648 34781 ft 502 kts 69°
2026-05-04 07:20 42.74219 -84.83587 34780 ft 502 kts 69°
2026-05-04 07:20 42.76157 -84.74463 34786 ft 502 kts 69°
2026-05-04 07:22 42.83809 -84.37950 34789 ft 502 kts 69°
2026-05-04 07:23 42.85697 -84.28786 34817 ft 502 kts 69°
2026-05-04 07:23 42.87582 -84.19605 34802 ft 503 kts 70°
2026-05-04 07:24 42.89461 -84.10420 34768 ft 503 kts 70°
2026-05-04 07:24 42.91333 -84.01226 34771 ft 503 kts 70°
2026-05-04 07:26 42.97255 -83.63908 34785 ft 511 kts 82°
2026-05-04 07:27 42.97710 -83.54283 34789 ft 512 kts 82°
2026-05-04 07:27 42.98137 -83.44588 34795 ft 512 kts 83°
2026-05-04 07:28 42.98571 -83.34887 34805 ft 512 kts 82°
2026-05-04 07:28 42.99009 -83.25187 34804 ft 512 kts 82°
2026-05-04 07:29 42.99441 -83.15486 34818 ft 512 kts 83°
2026-05-04 07:29 42.99861 -83.05853 34801 ft 512 kts 83°
2026-05-04 07:30 43.00276 -82.96152 34804 ft 511 kts 83°
2026-05-04 07:30 43.00682 -82.86452 34820 ft 512 kts 83°
2026-05-04 07:31 43.01080 -82.76748 34811 ft 511 kts 83°
2026-05-04 07:33 43.02587 -82.38010 34803 ft 511 kts 83°
2026-05-04 07:33 43.02941 -82.28370 34796 ft 511 kts 83°
2026-05-04 07:34 43.03290 -82.18662 34796 ft 511 kts 84°
2026-05-04 07:34 43.03630 -82.08956 34799 ft 511 kts 84°
2026-05-04 07:35 43.03963 -81.99244 34801 ft 511 kts 84°
2026-05-04 07:35 43.04287 -81.89531 34806 ft 511 kts 84°
2026-05-04 07:36 43.04601 -81.79885 34815 ft 511 kts 84°
2026-05-04 07:38 43.05785 -81.41008 34821 ft 512 kts 84°
2026-05-04 07:38 43.06058 -81.31345 34823 ft 512 kts 84°
2026-05-04 07:39 43.06326 -81.21613 34823 ft 513 kts 85°
2026-05-04 07:39 43.06798 -81.11901 34823 ft 510 kts 76°
2026-05-04 07:40 43.08972 -81.02811 34826 ft 501 kts 62°
2026-05-04 07:40 43.11853 -80.94226 34821 ft 500 kts 60°
2026-05-04 07:41 43.14862 -80.85648 34820 ft 501 kts 60°
2026-05-04 07:41 43.17869 -80.77011 34819 ft 503 kts 60°
2026-05-04 07:42 43.20852 -80.68334 34820 ft 503 kts 60°
2026-05-04 07:42 43.23799 -80.59700 34813 ft 503 kts 61°
2026-05-04 07:43 43.26756 -80.51005 34812 ft 502 kts 61°
2026-05-04 07:43 43.29708 -80.42302 34802 ft 504 kts 61°
2026-05-04 07:44 43.32663 -80.33568 34798 ft 504 kts 61°
2026-05-04 07:44 43.35612 -80.24820 34796 ft 504 kts 61°
2026-05-04 07:45 43.38532 -80.16128 34816 ft 504 kts 61°
2026-05-04 07:45 43.41478 -80.07338 34806 ft 508 kts 61°
2026-05-04 07:46 43.44433 -79.98488 34812 ft 509 kts 61°
2026-05-04 07:46 43.47383 -79.89621 34804 ft 509 kts 62°
2026-05-04 07:47 43.50306 -79.80808 34801 ft 509 kts 62°
2026-05-04 07:49 43.62003 -79.45248 34790 ft 509 kts 62°
2026-05-04 07:49 43.64929 -79.36345 34788 ft 509 kts 60°
2026-05-04 07:50 43.68307 -79.27790 34792 ft 507 kts 57°
2026-05-04 07:50 43.71789 -79.19313 34806 ft 507 kts 56°
2026-05-04 07:51 43.75285 -79.10847 34791 ft 507 kts 56°
2026-05-04 07:51 43.78748 -79.02419 34788 ft 507 kts 57°
2026-05-04 07:52 43.82229 -78.93905 34786 ft 509 kts 57°
2026-05-04 07:52 43.85705 -78.85371 34785 ft 509 kts 57°
2026-05-04 07:54 43.99538 -78.51159 34785 ft 510 kts 57°
2026-05-04 07:55 44.02993 -78.42552 34794 ft 510 kts 57°